AZU2921 SBCF-SBKP

Flight info

Callsign AZU2921
Flight time 0h 48m
Altitude 28000
Route ANDEM UZ30 ENTIT
Aircraft A20N/M-SDE2E3FGHIJ1RWXY/LB1

Departure

Time 2026-04-27 00:39
Airport Tancredo Neves International Airport (SBCF)

Arrival

Time 2026-04-27 01:28
Airport Viracopos International Airport (SBKP)
Time Latitude Longitude Altitude Speed Heading
2026-04-27 00:07 -19.63072 -43.96583 2817 ft 0 kts 49°
2026-04-27 00:26 -19.63075 -43.96587 2814 ft 2 kts 50°
2026-04-27 00:26 -19.63084 -43.96599 2815 ft 2 kts 50°
2026-04-27 00:26 -19.63093 -43.96610 2819 ft 2 kts 50°
2026-04-27 00:27 -19.63102 -43.96622 2817 ft 2 kts 51°
2026-04-27 00:27 -19.63110 -43.96633 2817 ft 2 kts 53°
2026-04-27 00:27 -19.63118 -43.96644 2817 ft 2 kts 57°
2026-04-27 00:27 -19.63125 -43.96656 2817 ft 2 kts 70°
2026-04-27 00:28 -19.63127 -43.96670 2820 ft 2 kts 125°
2026-04-27 00:28 -19.63123 -43.96675 2817 ft 0 kts 139°
2026-04-27 00:28 -19.63122 -43.96676 2817 ft 0 kts 140°
2026-04-27 00:28 -19.63123 -43.96675 2814 ft 0 kts 140°
2026-04-27 00:32 -19.63137 -43.96663 2816 ft 5 kts 140°
2026-04-27 00:32 -19.63171 -43.96633 2814 ft 8 kts 137°
2026-04-27 00:32 -19.63216 -43.96590 2819 ft 10 kts 139°
2026-04-27 00:32 -19.63266 -43.96546 2814 ft 11 kts 139°
2026-04-27 00:33 -19.63328 -43.96488 2814 ft 13 kts 139°
2026-04-27 00:33 -19.63392 -43.96420 2814 ft 14 kts 125°
2026-04-27 00:33 -19.63429 -43.96343 2816 ft 12 kts 116°
2026-04-27 00:33 -19.63484 -43.96289 2814 ft 11 kts 180°
2026-04-27 00:34 -19.63542 -43.96320 2817 ft 8 kts 210°
2026-04-27 00:34 -19.63600 -43.96353 2814 ft 10 kts 207°
2026-04-27 00:34 -19.63669 -43.96371 2818 ft 11 kts 162°
2026-04-27 00:34 -19.63728 -43.96318 2815 ft 12 kts 139°
2026-04-27 00:35 -19.63796 -43.96256 2814 ft 14 kts 139°
2026-04-27 00:35 -19.63870 -43.96187 2814 ft 15 kts 138°
2026-04-27 00:35 -19.63955 -43.96109 2816 ft 16 kts 140°
2026-04-27 00:35 -19.64048 -43.96023 2814 ft 19 kts 139°
2026-04-27 00:36 -19.64156 -43.95923 2814 ft 22 kts 139°
2026-04-27 00:36 -19.64276 -43.95810 2814 ft 25 kts 138°
2026-04-27 00:36 -19.64409 -43.95687 2814 ft 26 kts 140°
2026-04-27 00:36 -19.64527 -43.95580 2814 ft 17 kts 138°
2026-04-27 00:37 -19.64632 -43.95481 2814 ft 20 kts 143°
2026-04-27 00:37 -19.64702 -43.95511 2815 ft 0 kts 229°
2026-04-27 00:37 -19.64708 -43.95519 2814 ft 5 kts 229°
2026-04-27 00:38 -19.64754 -43.95573 2813 ft 14 kts 229°
2026-04-27 00:38 -19.64751 -43.95601 2814 ft 3 kts 315°
2026-04-27 00:38 -19.64694 -43.95656 2814 ft 37 kts 319°
2026-04-27 00:38 -19.64269 -43.96044 2813 ft 120 kts 319°
2026-04-27 00:39 -19.63483 -43.96771 2979 ft 165 kts 318°
2026-04-27 00:39 -19.62641 -43.97551 3830 ft 156 kts 319°
2026-04-27 00:39 -19.61784 -43.98339 4349 ft 172 kts 320°
2026-04-27 00:39 -19.60824 -43.99213 4813 ft 189 kts 320°
2026-04-27 00:40 -19.59792 -44.00143 5279 ft 204 kts 320°
2026-04-27 00:40 -19.58671 -44.01182 5676 ft 221 kts 316°
2026-04-27 00:40 -19.57618 -44.02431 6174 ft 235 kts 305°
2026-04-27 00:40 -19.56963 -44.04071 6588 ft 256 kts 279°
2026-04-27 00:41 -19.57034 -44.05967 7276 ft 262 kts 254°
2026-04-27 00:41 -19.57871 -44.07746 7757 ft 282 kts 232°
2026-04-27 00:41 -19.59113 -44.09430 8476 ft 291 kts 231°
2026-04-27 00:41 -19.60370 -44.11097 9359 ft 295 kts 232°
2026-04-27 00:42 -19.61478 -44.12950 10201 ft 301 kts 243°
2026-04-27 00:42 -19.62397 -44.15011 10692 ft 319 kts 245°
2026-04-27 00:42 -19.63285 -44.17270 10965 ft 342 kts 248°
2026-04-27 00:42 -19.64086 -44.19708 11513 ft 353 kts 251°
2026-04-27 00:43 -19.64877 -44.22180 12321 ft 355 kts 250°
2026-04-27 00:43 -19.65740 -44.24645 13093 ft 359 kts 248°
2026-04-27 00:43 -19.66663 -44.27084 13850 ft 362 kts 247°
2026-04-27 00:43 -19.66774 -44.27371 13932 ft 362 kts 247°
2026-04-27 00:44 -19.67706 -44.29721 14572 ft 365 kts 247°
2026-04-27 00:44 -19.68699 -44.32181 15219 ft 368 kts 247°
2026-04-27 00:44 -19.69717 -44.34693 15881 ft 371 kts 247°
2026-04-27 00:45 -19.70747 -44.37233 16541 ft 374 kts 247°
2026-04-27 00:45 -19.71768 -44.39757 17161 ft 378 kts 248°
2026-04-27 00:45 -19.72811 -44.42340 17786 ft 381 kts 248°
2026-04-27 00:45 -19.73507 -44.44064 18200 ft 383 kts 248°
2026-04-27 00:46 -19.74563 -44.46685 18742 ft 386 kts 248°
2026-04-27 00:46 -19.75970 -44.50177 19428 ft 391 kts 248°
2026-04-27 00:46 -19.76696 -44.51979 19785 ft 393 kts 248°
2026-04-27 00:46 -19.77761 -44.54626 20272 ft 396 kts 248°
2026-04-27 00:47 -19.78851 -44.57335 20781 ft 399 kts 248°
2026-04-27 00:47 -19.79951 -44.60072 21273 ft 403 kts 248°
2026-04-27 00:47 -19.81058 -44.62827 21780 ft 406 kts 248°
2026-04-27 00:47 -19.82160 -44.65573 22257 ft 410 kts 248°
2026-04-27 00:48 -19.83286 -44.68377 22734 ft 413 kts 248°
2026-04-27 00:48 -19.84417 -44.71195 23210 ft 417 kts 248°
2026-04-27 00:48 -19.85561 -44.74049 23666 ft 420 kts 248°
2026-04-27 00:48 -19.86696 -44.76880 24076 ft 422 kts 248°
2026-04-27 00:49 -19.87852 -44.79764 24518 ft 424 kts 248°
2026-04-27 00:49 -19.89016 -44.82672 24930 ft 427 kts 248°
2026-04-27 00:49 -19.90182 -44.85583 25337 ft 429 kts 248°
2026-04-27 00:49 -19.91340 -44.88476 25741 ft 431 kts 248°
2026-04-27 00:50 -19.92519 -44.91427 26143 ft 433 kts 248°
2026-04-27 00:50 -19.94892 -44.97365 26933 ft 438 kts 248°
2026-04-27 00:50 -19.96085 -45.00353 27318 ft 440 kts 249°
2026-04-27 00:51 -19.97267 -45.03316 27708 ft 442 kts 249°
2026-04-27 00:51 -19.98471 -45.06337 27969 ft 444 kts 249°
2026-04-27 00:51 -19.99683 -45.09376 28035 ft 445 kts 249°
2026-04-27 00:52 -20.02096 -45.15437 28037 ft 444 kts 249°
2026-04-27 00:52 -20.04488 -45.21450 28035 ft 444 kts 249°
2026-04-27 00:53 -20.06895 -45.27509 28035 ft 443 kts 249°
2026-04-27 00:53 -20.09298 -45.33564 28035 ft 443 kts 249°
2026-04-27 00:54 -20.12475 -45.39144 28037 ft 448 kts 231°
2026-04-27 00:54 -20.17097 -45.43611 28037 ft 451 kts 221°
2026-04-27 00:55 -20.21963 -45.47846 28036 ft 450 kts 221°
2026-04-27 00:55 -20.26815 -45.52082 28038 ft 450 kts 221°
2026-04-27 00:56 -20.31628 -45.56285 28035 ft 449 kts 221°
2026-04-27 00:56 -20.36473 -45.60521 28036 ft 449 kts 221°
2026-04-27 00:57 -20.41302 -45.64747 28033 ft 448 kts 222°
2026-04-27 00:57 -20.46100 -45.68948 28033 ft 448 kts 222°
2026-04-27 00:58 -20.50887 -45.73143 28034 ft 444 kts 222°
2026-04-27 00:58 -20.55694 -45.77362 28030 ft 447 kts 222°
2026-04-27 00:59 -20.60456 -45.81542 28029 ft 446 kts 222°
2026-04-27 00:59 -20.64744 -45.85309 28031 ft 445 kts 222°
2026-04-27 01:00 -20.66216 -45.86603 28025 ft 445 kts 222°
2026-04-27 01:00 -20.70977 -45.90792 28031 ft 445 kts 222°
2026-04-27 01:01 -20.75759 -45.95000 28033 ft 445 kts 222°
2026-04-27 01:01 -20.80510 -45.99183 28028 ft 445 kts 222°
2026-04-27 01:02 -20.85284 -46.03389 28032 ft 444 kts 223°
2026-04-27 01:02 -20.90057 -46.07599 28033 ft 444 kts 223°
2026-04-27 01:03 -20.94843 -46.11790 28032 ft 445 kts 220°
2026-04-27 01:03 -21.00194 -46.15103 28033 ft 452 kts 206°
2026-04-27 01:04 -21.06153 -46.17308 28031 ft 453 kts 201°
2026-04-27 01:04 -21.12134 -46.19436 28031 ft 453 kts 202°
2026-04-27 01:05 -21.18136 -46.21565 28031 ft 453 kts 201°
2026-04-27 01:05 -21.24127 -46.23595 28031 ft 453 kts 201°
2026-04-27 01:06 -21.30142 -46.25629 28035 ft 453 kts 201°
2026-04-27 01:06 -21.36157 -46.27674 28040 ft 452 kts 201°
2026-04-27 01:07 -21.42130 -46.29709 28040 ft 452 kts 201°
2026-04-27 01:07 -21.48143 -46.31760 28045 ft 452 kts 201°
2026-04-27 01:08 -21.54145 -46.33810 28047 ft 452 kts 201°
2026-04-27 01:08 -21.60099 -46.35844 28047 ft 451 kts 201°
2026-04-27 01:09 -21.66088 -46.37892 28049 ft 451 kts 202°
2026-04-27 01:09 -21.72042 -46.40053 28049 ft 450 kts 203°
2026-04-27 01:10 -21.77944 -46.42245 28053 ft 450 kts 203°
2026-04-27 01:10 -21.83851 -46.44422 28054 ft 448 kts 203°
2026-04-27 01:10 -21.86803 -46.45507 27777 ft 447 kts 203°
2026-04-27 01:11 -21.89758 -46.46594 27081 ft 449 kts 203°
2026-04-27 01:11 -21.92696 -46.47676 26117 ft 455 kts 203°
2026-04-27 01:11 -21.95719 -46.48791 25200 ft 459 kts 202°
2026-04-27 01:11 -21.98741 -46.49903 24539 ft 455 kts 202°
2026-04-27 01:12 -22.01725 -46.51000 23915 ft 451 kts 202°
2026-04-27 01:12 -22.04690 -46.52091 23237 ft 447 kts 202°
2026-04-27 01:12 -22.07581 -46.53157 22591 ft 442 kts 202°
2026-04-27 01:12 -22.10474 -46.54224 21977 ft 436 kts 202°
2026-04-27 01:13 -22.13324 -46.55276 21390 ft 429 kts 202°
2026-04-27 01:13 -22.16135 -46.56315 20802 ft 424 kts 202°
2026-04-27 01:13 -22.18918 -46.57344 20229 ft 419 kts 202°
2026-04-27 01:13 -22.21665 -46.58360 19638 ft 414 kts 202°
2026-04-27 01:14 -22.24347 -46.59352 19063 ft 409 kts 202°
2026-04-27 01:14 -22.27035 -46.60347 18499 ft 405 kts 202°
2026-04-27 01:14 -22.29689 -46.61330 17877 ft 401 kts 202°
2026-04-27 01:14 -22.32307 -46.62300 17367 ft 394 kts 201°
2026-04-27 01:15 -22.34856 -46.63244 16834 ft 388 kts 201°
2026-04-27 01:15 -22.37399 -46.64186 16292 ft 383 kts 201°
2026-04-27 01:15 -22.39877 -46.65206 15758 ft 377 kts 209°
2026-04-27 01:15 -22.42058 -46.66727 15239 ft 369 kts 222°
2026-04-27 01:16 -22.43806 -46.68679 14714 ft 364 kts 234°
2026-04-27 01:16 -22.45324 -46.70852 14213 ft 360 kts 234°
2026-04-27 01:16 -22.46837 -46.72995 13685 ft 358 kts 234°
2026-04-27 01:16 -22.48342 -46.75120 13195 ft 353 kts 234°
2026-04-27 01:17 -22.49829 -46.77216 12703 ft 348 kts 234°
2026-04-27 01:17 -22.51296 -46.79287 12222 ft 344 kts 234°
2026-04-27 01:17 -22.52744 -46.81332 11750 ft 341 kts 234°
2026-04-27 01:17 -22.54181 -46.83364 11268 ft 337 kts 234°
2026-04-27 01:18 -22.55583 -46.85349 10803 ft 334 kts 234°
2026-04-27 01:18 -22.56987 -46.87335 10406 ft 329 kts 234°
2026-04-27 01:18 -22.58352 -46.89268 10273 ft 315 kts 234°
2026-04-27 01:18 -22.59650 -46.91109 10162 ft 301 kts 234°
2026-04-27 01:19 -22.60901 -46.92884 9967 ft 292 kts 234°
2026-04-27 01:19 -22.62123 -46.94620 9658 ft 287 kts 234°
2026-04-27 01:19 -22.63315 -46.96312 9453 ft 280 kts 234°
2026-04-27 01:19 -22.64483 -46.97970 9117 ft 279 kts 234°
2026-04-27 01:20 -22.65659 -46.99639 8835 ft 275 kts 234°
2026-04-27 01:20 -22.66840 -47.01319 8620 ft 285 kts 234°
2026-04-27 01:20 -22.68039 -47.03024 8391 ft 282 kts 234°
2026-04-27 01:20 -22.69222 -47.04706 8176 ft 281 kts 234°
2026-04-27 01:21 -22.70393 -47.06372 7951 ft 282 kts 234°
2026-04-27 01:21 -22.71579 -47.08061 7684 ft 281 kts 234°
2026-04-27 01:21 -22.72760 -47.09742 7461 ft 280 kts 234°
2026-04-27 01:21 -22.73939 -47.11421 7237 ft 280 kts 234°
2026-04-27 01:22 -22.75120 -47.13104 7014 ft 280 kts 235°
2026-04-27 01:22 -22.76296 -47.14780 6791 ft 279 kts 235°
2026-04-27 01:22 -22.77471 -47.16455 6563 ft 279 kts 235°
2026-04-27 01:22 -22.78642 -47.18125 6341 ft 279 kts 235°
2026-04-27 01:23 -22.79814 -47.19797 6116 ft 278 kts 235°
2026-04-27 01:23 -22.80984 -47.21454 5976 ft 275 kts 232°
2026-04-27 01:23 -22.82316 -47.22891 5901 ft 267 kts 221°
2026-04-27 01:23 -22.83764 -47.24082 5815 ft 256 kts 219°
2026-04-27 01:24 -22.85146 -47.25226 5729 ft 245 kts 220°
2026-04-27 01:24 -22.86460 -47.26323 5634 ft 232 kts 220°
2026-04-27 01:24 -22.87754 -47.27298 5456 ft 226 kts 204°
2026-04-27 01:24 -22.89290 -47.27394 5146 ft 230 kts 162°
2026-04-27 01:25 -22.90618 -47.26447 4855 ft 231 kts 136°
2026-04-27 01:25 -22.91801 -47.25261 4530 ft 231 kts 140°
2026-04-27 01:25 -22.93020 -47.24132 4250 ft 229 kts 136°
2026-04-27 01:25 -22.94079 -47.22846 3958 ft 228 kts 128°
2026-04-27 01:26 -22.95023 -47.21471 3685 ft 227 kts 128°
2026-04-27 01:26 -22.95994 -47.20121 3408 ft 227 kts 127°
2026-04-27 01:26 -22.96945 -47.18785 3149 ft 219 kts 128°
2026-04-27 01:26 -22.97853 -47.17509 2847 ft 204 kts 127°
2026-04-27 01:27 -22.98673 -47.16361 2582 ft 179 kts 127°
2026-04-27 01:27 -22.99378 -47.15373 2338 ft 157 kts 127°
2026-04-27 01:27 -23.00003 -47.14476 2153 ft 141 kts 125°
2026-04-27 01:27 -23.00503 -47.13779 2155 ft 88 kts 128°
2026-04-27 01:28 -23.00731 -47.13490 2154 ft 12 kts 172°
2026-04-27 01:28 -23.00750 -47.13495 2156 ft 1 kts 211°
2026-04-27 01:28 -23.00753 -47.13501 2156 ft 0 kts 247°
2026-04-27 01:28 -23.00752 -47.13513 2159 ft 6 kts 267°
2026-04-27 01:29 -23.00747 -47.13595 2161 ft 16 kts 275°
2026-04-27 01:29 -23.00729 -47.13744 2158 ft 21 kts 279°
2026-04-27 01:29 -23.00671 -47.13865 2155 ft 19 kts 309°
2026-04-27 01:29 -23.00586 -47.13983 2152 ft 21 kts 308°
2026-04-27 01:30 -23.00493 -47.14110 2150 ft 23 kts 307°
2026-04-27 01:30 -23.00393 -47.14254 2154 ft 25 kts 309°
2026-04-27 01:30 -23.00285 -47.14405 2153 ft 26 kts 309°
2026-04-27 01:30 -23.00200 -47.14524 2149 ft 20 kts 308°
2026-04-27 01:31 -23.00117 -47.14637 2150 ft 17 kts 308°
2026-04-27 01:31 -23.00041 -47.14745 2149 ft 19 kts 307°
2026-04-27 01:31 -23.00034 -47.14881 2148 ft 19 kts 226°
2026-04-27 01:31 -23.00140 -47.14971 2148 ft 20 kts 218°
2026-04-27 01:32 -23.00257 -47.15067 2146 ft 22 kts 218°
2026-04-27 01:32 -23.00369 -47.15158 2148 ft 17 kts 203°
2026-04-27 01:32 -23.00447 -47.15095 2149 ft 14 kts 130°
2026-04-27 01:32 -23.00508 -47.15006 2150 ft 13 kts 107°
2026-04-27 01:33 -23.00474 -47.14973 2150 ft 6 kts 34°
2026-04-27 01:33 -23.00462 -47.14963 2150 ft 0 kts 39°